Wiley, CO

7:02 AM MDT on September 30, 2016 (GMT -0600)
Lamar Municipal

Weather History for KLAA - June, 2013

Change the Weather History Date:

Tuesday, June 25, 2013

  Actual Average Record
Temperature  
Mean Temperature 81 °F 74 °F  
Max Temperature 101 °F 90 °F 108 °F (2012)
Min Temperature 60 °F 58 °F 46 °F (1940)
Degree Days  
Heating Degree Days 0 0  
Month to date heating degree days 16 19  
Since 1 June heating degree days 16 19  
Since 1 July heating degree days 5506 5559  
Cooling Degree Days 16 9  
Month to date cooling degree days 299 169  
Year to date cooling degree days 440 229  
Since 1 June cooling degree days 299 169  
Growing Degree Days 30 (Base 50)    
Moisture  
Dew Point 26 °F    
Average Humidity 21    
Maximum Humidity 37    
Minimum Humidity 5    
Precipitation  
Precipitation 0.00 in 0.07 in 1.15 in (2015)
Month to date precipitation 2.19  
Year to date precipitation 2.76  
Sea Level Pressure  
Sea Level Pressure 29.64 in    
Wind  
Wind Speed 6 mph (South)    
Max Wind Speed 13 mph    
Max Gust Speed 21 mph    
Visibility 10 miles    
Events      
T = Trace of Precipitation, MM = Missing Value Source: NWS Daily Summary

Daily Weather History Graph

Daily Weather History Graph

Search for Another Location

Airport or City:

Trip Planner

Search our weather history database for the weather conditions in past years. The results will help you decide how hot, cold, wet, or windy it might be!

Date:

Astronomy

Jun. 25, 2013 Rise Set
Actual Time 5:29 AM MDT 8:17 PM MDT
Civil Twilight 4:57 AM MDT 8:49 PM MDT
Nautical Twilight 4:18 AM MDT 9:28 PM MDT
Astronomical Twilight 3:33 AM MDT 10:13 PM MDT
Moon 10:07 PM MDT (6/25) 8:09 AM MDT (6/25)
Length of Visible Light 15h 51m
Length of Day
14h 48m
Waning Gibbous, 92% of the Moon is Illuminated
Jun 25
Waning Gibbous
Jun 29
Last Quarter
Jul 8
New
Jul 15
First Quarter
Jul 22
Full

Hourly Weather History & Observations

Time (MDT) Temp. Dew Point Humidity Pressure Visibility Wind Dir Wind Speed Gust Speed Precip Events Conditions
12:53 AM 71.1 °F 39.9 °F 32% 29.57 in 10.0 mi SW 5.8 mph - N/A   Clear
1:53 AM 64.9 °F 37.9 °F 37% 29.57 in 10.0 mi SSW 8.1 mph - N/A   Clear
2:53 AM 66.0 °F 30.9 °F 27% 29.56 in 9.0 mi Calm Calm - N/A   Clear
3:53 AM 66.9 °F 28.9 °F 24% 29.58 in 10.0 mi SW 4.6 mph - N/A   Clear
4:53 AM 62.1 °F 28.9 °F 29% 29.60 in 10.0 mi SSW 8.1 mph - N/A   Clear
5:53 AM 60.1 °F 32.0 °F 35% 29.65 in 10.0 mi North 3.5 mph - N/A   Clear
6:53 AM 66.9 °F 30.9 °F 26% 29.65 in 10.0 mi WSW 4.6 mph - N/A   Clear
7:53 AM 77.0 °F 26.1 °F 15% 29.67 in 10.0 mi SW 8.1 mph - N/A   Clear
8:53 AM 84.0 °F 18.0 °F 9% 29.69 in 10.0 mi West 9.2 mph - N/A   Clear
9:53 AM 89.1 °F 23.0 °F 9% 29.68 in 10.0 mi West 6.9 mph - N/A   Clear
10:53 AM 91.9 °F 21.9 °F 8% 29.68 in 10.0 mi North 5.8 mph - N/A   Clear
11:53 AM 93.9 °F 21.0 °F 7% 29.68 in 10.0 mi Calm Calm - N/A   Clear
12:53 PM 96.1 °F 21.9 °F 7% 29.66 in 10.0 mi NNE 6.9 mph - N/A   Clear
1:53 PM 97.0 °F 16.0 °F 5% 29.66 in 10.0 mi SW 6.9 mph - N/A   Clear
2:53 PM 99.0 °F 17.1 °F 5% 29.65 in 10.0 mi Variable 4.6 mph - N/A   Clear
3:53 PM 98.1 °F 17.1 °F 5% 29.64 in 10.0 mi SSW 9.2 mph - N/A   Clear
4:53 PM 100.0 °F 19.0 °F 5% 29.63 in 10.0 mi North 6.9 mph - N/A   Clear
5:53 PM 99.0 °F 18.0 °F 5% 29.63 in 10.0 mi Variable 3.5 mph - N/A   Clear
6:53 PM 97.0 °F 19.0 °F 6% 29.63 in 10.0 mi East 6.9 mph - N/A   Clear
7:53 PM 91.0 °F 27.0 °F 10% 29.63 in 10.0 mi ESE 8.1 mph - N/A   Clear
8:53 PM 82.9 °F 28.9 °F 14% 29.65 in 10.0 mi SE 10.4 mph - N/A   Clear
9:53 PM 77.0 °F 30.9 °F 19% 29.67 in 10.0 mi East 6.9 mph - N/A   Clear
10:53 PM 75.9 °F 36.0 °F 23% 29.70 in 10.0 mi ENE 6.9 mph - N/A   Clear
11:53 PM 73.0 °F 42.1 °F 33% 29.71 in 10.0 mi East 6.9 mph - N/A   Clear